Location: Ottawa
(45.4167°N, 75.7000°W)
Time: 21:30:09
(UTC-05:00)

Envisat - Pass Details

Date: 12 October 2017
Orbit: 764 x 766 km, 98.2° (Epoch: 16 December)

Event Time Altitude Azimuth Distance (km) Brightness Sun altitude
Exits shadow 19:53:48 29° 92° (E) 1,395 3.7 -16.8°
Maximum altitude 19:54:59 32° 66° (ENE) 1,300 3.7 -17.1°
Drops below altitude 10° 19:59:27 10° 5° (N) 2,315 5.5 -17.8°
Sets 20:01:58 0° 355° (N) 3,247 6.4 -18.3°
